Terminal Aerodrome Forecast
Issued by NWS Upton, NY

Home | Current Version | Previous Version | Text Only | Print | Product List | Glossary On
Versions: 1 2 3 4 5 6 7 8 9 10 11 12 13 14 15 16 17 18 19 20 21 22 23 24 25 26 27 28 29 30 31 32 33 34 35 36
000
FTUS41 KOKX 190531
TAFBDR
TAF
KBDR 190531Z 1906/2006 36004KT P6SM SCT025 BKN035
      TEMPO 1906/1908 BKN025
     FM191500 27007KT P6SM SCT025 SCT040
     FM191900 31006KT P6SM SCT020
     FM200200 36005KT P6SM SCT020=

USA.gov is the U.S. government's official web portal to all federal, state and local government web resources and services.